OBJECT_NAME,OBJECT_ID,EPOCH,MEAN_MOTION,ECCENTRICITY,INCLINATION,RA_OF_ASC_NODE,ARG_OF_PERICENTER,MEAN_ANOMALY,EPHEMERIS_TYPE,CLASSIFICATION_TYPE,NORAD_CAT_ID,ELEMENT_SET_NO,REV_AT_EPOCH,BSTAR,MEAN_MOTION_DOT,MEAN_MOTION_DDOT GPS BIIR-08,2003-005A,2026-09-11T14:28:20.052768,2.00555870,.01502251,54.8693,211.5378,53.5986,121.3720,0,U,27663,999,17304,0,-.1E-6,0 GPS BIIR-11,2004-009A,2026-09-10T21:31:57.660096,2.00573795,.0117973,54.7639,272.2167,176.3888,2.1213,0,U,28190,999,16466,0,-.11E-6,0 GPS BIIR-13,2004-045A,2026-09-11T03:25:59.480256,2.00559594,.0172011,55.0798,321.4298,318.4975,101.9612,0,U,28474,999,16015,0,-.79E-6,0 GPS BIIR-14M,2005-038A,2026-09-11T16:30:33.697728,2.00559724,.01287558,54.8134,269.6790,297.4628,121.8822,0,U,28874,999,15357,0,-.15E-6,0 METEOSAT-9 (MSG-2),2005-049B,2026-09-12T02:08:49.413120,1.00273600,.00018925,9.5547,53.2842,347.3065,28.4077,0,U,28912,999,787,0,.113E-5,0 GPS BIIR-16M,2006-052A,2026-09-12T04:08:01.008960,2.00562877,.00854041,54.9240,210.5606,91.1350,269.8072,0,U,29601,999,14515,0,-.5E-7,0 GPS BIIR-17M,2007-047A,2026-09-11T23:33:51.141888,2.00551515,.0169011,54.1635,76.4901,89.4051,272.5828,0,U,32260,999,13855,0,-.14E-6,0 GPS BIIR-18M,2007-062A,2026-09-12T07:24:22.568256,2.00564843,.0036015,54.9678,270.6430,170.0830,195.9120,0,U,32384,999,13726,0,-.18E-6,0 GOES 14,2009-033A,2026-09-12T04:44:33.737280,1.00071611,.00021161,1.9087,81.8185,90.4315,335.1427,0,U,35491,999,746,0,-.153E-5,0 GOES 15,2010-008A,2026-09-12T03:56:31.586208,1.00271451,.00051514,1.5126,81.8555,80.3249,311.4374,0,U,36411,999,6051,0,.8E-7,0 GSAT0101 (GALILEO-PFM),2011-060A,2026-09-11T15:54:44.036352,1.70475619,.00002522,56.9594,339.4167,59.2386,300.8114,0,U,37846,999,9259,0,-.103E-5,0 GSAT0102 (GALILEO-FM2),2011-060B,2026-09-03T10:17:32.822304,1.70475714,.0001594,56.9635,339.6410,329.3167,62.9507,0,U,37847,999,9246,0,-.84E-6,0 LUCH 5A,2011-074B,2026-09-12T07:12:21.561984,1.00272684,.00038825,8.9694,72.5067,120.8575,72.9739,0,U,37951,999,5392,0,-.6E-6,0 METEOSAT-10 (MSG-3),2012-035B,2026-09-12T07:03:43.636320,1.00270691,.00008207,4.8739,60.5319,104.3128,292.4627,0,U,38552,999,5173,0,-.19E-6,0 SARSAT 13 (METOP-B),2012-049A,2026-09-12T06:18:17.277408,14.21458567,.0003457,98.6421,304.9895,95.3514,264.8058,0,U,38771,999,72563,.47748208E-4,.61E-6,0 GPS BIIF-3,2012-053A,2026-09-11T01:42:27.551808,2.00556923,.01854514,53.5962,140.0783,67.3330,294.6954,0,U,38833,999,10116,0,.14E-6,0 GSAT0103 (GALILEO-FM3),2012-055A,2026-09-11T16:53:55.952448,1.70473471,.00020469,55.8600,99.1697,315.2788,44.7968,0,U,38857,999,8648,0,.15E-6,0 GPS BIIF-4,2013-023A,2026-09-10T22:31:43.991040,2.00563471,.0142242,54.4436,265.4738,51.1420,310.1467,0,U,39166,999,9760,0,-.8E-7,0 INSAT-3D,2013-038B,2026-09-12T05:57:57.441600,1.00272935,.00012995,2.1447,81.3476,111.6066,17.3162,0,U,39216,999,4795,0,-.352E-5,0 GPS BIIF-5,2014-008A,2026-09-11T22:30:05.178816,2.00565427,.00835894,53.6623,145.7793,231.5683,127.7499,0,U,39533,999,9142,0,.13E-6,0 LUCH 5V,2014-023A,2026-09-12T00:40:05.422656,1.00270837,.00026582,5.3446,68.7928,139.8943,247.1260,0,U,39727,999,4523,0,-.281E-5,0 GPS BIIF-6,2014-026A,2026-09-12T05:11:38.456448,2.00554703,.00392931,56.4493,328.1268,324.1701,35.6287,0,U,39741,999,9028,0,-.9E-6,0 GPS BIIF-7,2014-045A,2026-09-11T19:22:48.412128,2.00564033,.00363455,55.4149,85.0144,119.8600,240.5660,0,U,40105,999,8781,0,.3E-7,0 GSAT0201 (GALILEO 5),2014-050A,2026-09-12T04:38:39.647616,1.85519597,.16863369,48.7843,269.8594,182.7547,176.1917,0,U,40128,999,7993,0,-.34E-6,0 GSAT0202 (GALILEO 6),2014-050B,2026-09-11T08:53:55.337568,1.85520202,.16877405,48.8022,268.9798,183.4320,175.2535,0,U,40129,999,8208,0,-.29E-6,0 GPS BIIF-8,2014-068A,2026-09-11T16:16:45.761088,2.00556705,.00670688,57.0446,27.6301,73.7719,286.9591,0,U,40294,999,8694,0,-.91E-6,0 GLONASS-K 2,2014-075A,2026-09-11T15:27:54.239328,2.13101274,.00221915,63.6173,187.3806,210.5501,149.3143,0,U,40315,999,9169,0,-.2E-7,0 GPS BIIF-9,2015-013A,2026-09-11T07:33:56.458656,2.00570877,.01127711,53.1580,200.6179,41.0484,319.7596,0,U,40534,999,8355,0,-.15E-6,0 GSAT0203 (GALILEO 7),2015-017A,2026-09-09T02:15:32.037120,1.70476378,.000446,56.7527,339.3092,251.6359,108.3566,0,U,40544,999,7063,0,-.1E-5,0 GSAT0204 (GALILEO 8),2015-017B,2026-09-11T16:42:58.663584,1.70475843,.00048357,56.7582,339.2572,241.3315,118.6677,0,U,40545,999,3372,0,-.103E-5,0 GPS BIIF-10,2015-033A,2026-09-10T23:31:43.849632,2.00551728,.01170888,53.9223,263.5429,30.5092,330.1897,0,U,40730,999,8171,0,-.9E-7,0 METEOSAT-11 (MSG-4),2015-034A,2026-09-12T05:23:38.233248,1.00272237,.0000644,3.4138,70.4786,71.3872,299.5187,0,U,40732,999,809,0,.49E-6,0 GSAT0206 (GALILEO 10),2015-045B,2026-09-11T02:21:44.065152,1.70473136,.00025404,54.9256,219.2330,349.0399,10.9008,0,U,40890,999,6850,0,-.2E-7,0 GPS BIIF-11,2015-062A,2026-09-12T00:42:05.699232,2.00566941,.01158209,57.0156,27.4729,231.0497,127.9112,0,U,41019,999,7957,0,-.92E-6,0 ELEKTRO-L 2,2015-074A,2026-09-12T06:59:36.529728,1.00272019,.00018481,6.9079,69.4189,196.4029,175.8604,0,U,41105,999,3938,0,-.129E-5,0 GSAT0209 (GALILEO 12),2015-079A,2026-09-10T02:15:20.222784,1.70473608,.00036987,55.8813,98.9312,16.5279,343.5809,0,U,41174,999,6622,0,.21E-6,0 GSAT0208 (GALILEO 11),2015-079B,2026-09-10T21:37:29.789472,1.70473654,.00051705,55.8790,98.9063,45.8921,314.2454,0,U,41175,999,6665,0,.18E-6,0 GPS BIIF-12,2016-007A,2026-09-11T14:52:06.377664,2.00572750,.00974933,55.5828,86.0329,247.2191,111.8125,0,U,41328,999,7757,0,.7E-7,0 GSAT0211 (GALILEO 14),2016-030A,2026-09-11T14:39:28.172736,1.70473146,.0003775,55.0761,219.3188,332.6530,27.2735,0,U,41549,999,6414,0,-.1E-7,0 GSAT0210 (GALILEO 13),2016-030B,2026-09-11T06:45:02.825280,1.70473599,.0004075,55.0753,219.3259,253.3502,106.5514,0,U,41550,999,6413,0,-.2E-7,0 INSAT-3DR,2016-054A,2026-09-12T03:32:21.720768,1.00272231,.00116691,0.0257,109.2023,155.5973,213.4660,0,U,41752,999,3669,0,-.92E-6,0 GSAT0207 (GALILEO 15),2016-069A,2026-09-11T13:26:53.992896,1.70473750,.00030374,55.5533,98.6945,359.7632,0.3287,0,U,41859,999,6087,0,.15E-6,0 GSAT0212 (GALILEO 16),2016-069B,2026-09-10T05:46:21.372960,1.70473888,.0003965,55.5502,98.7259,39.3601,320.7650,0,U,41860,999,6110,0,.19E-6,0 GSAT0213 (GALILEO 17),2016-069C,2026-09-08T20:20:49.486272,1.70474341,.00021681,55.5520,98.7726,331.3762,28.7083,0,U,41861,999,6094,0,.21E-6,0 GSAT0214 (GALILEO 18),2016-069D,2026-09-10T04:00:59.530752,1.70474047,.00023729,55.5429,98.7287,358.3065,1.7890,0,U,41862,999,6109,0,.2E-6,0 GOES 16,2016-071A,2026-09-12T06:19:38.851968,1.00272465,.00016957,0.5508,84.5800,131.1654,125.7660,0,U,41866,999,3597,0,-.106E-5,0 GSAT-17,2017-040B,2026-09-12T02:22:25.608864,1.00270430,.00039551,0.0025,171.0648,81.6474,227.5013,0,U,42815,999,3366,0,-.273E-5,0 GSAT0215 (GALILEO 19),2017-079A,2026-09-11T05:49:50.115360,1.70473895,.00033461,55.0541,219.1395,281.3163,78.5923,0,U,43055,999,5445,0,-.2E-7,0 GSAT0216 (GALILEO 20),2017-079B,2026-09-11T12:49:01.212384,1.70473999,.00046117,55.0545,219.1316,288.6464,71.2497,0,U,43056,999,5447,0,-.1E-7,0 GSAT0217 (GALILEO 21),2017-079C,2026-09-11T04:02:19.710816,1.70473968,.00040796,55.0524,219.1392,302.5197,57.3871,0,U,43057,999,5445,0,-.2E-7,0 GSAT0218 (GALILEO 22),2017-079D,2026-09-11T09:19:14.475072,1.70473958,.0005052,55.0528,219.1309,284.2678,75.6223,0,U,43058,999,5448,0,-.2E-7,0 GOES 17,2018-022A,2026-09-12T06:38:08.588256,1.00272393,.00008306,1.1557,84.2448,130.2329,146.8528,0,U,43226,999,3129,0,-.197E-5,0 GSAT0221 (GALILEO 25),2018-060A,2026-09-10T02:52:12.488736,1.70476218,.0004384,57.1351,339.4875,269.9725,90.0208,0,U,43564,999,5061,0,-.101E-5,0 GSAT0222 (GALILEO 26),2018-060B,2026-09-06T05:35:54.496896,1.70475955,.000458,57.1403,339.5966,241.9595,118.0319,0,U,43565,999,5059,0,-.93E-6,0 GSAT0219 (GALILEO 23),2018-060C,2026-08-30T09:57:42.200928,1.70476242,.00035149,57.1426,339.7826,273.9182,86.0846,0,U,43566,999,5045,0,-.76E-6,0 GSAT0220 (GALILEO 24),2018-060D,2026-09-10T04:40:15.337344,1.70475942,.00036776,57.1370,339.4905,268.4040,91.5976,0,U,43567,999,5062,0,-.101E-5,0 BEIDOU-3 M13,2018-072A,2026-09-11T23:39:18.730080,1.86230810,.00041801,56.7046,59.7997,330.4364,29.5577,0,U,43622,999,5427,0,-.4E-6,0 BEIDOU-3 M14,2018-072B,2026-09-11T20:25:30.706176,1.86230892,.00038643,56.7062,59.7985,24.7605,335.2765,0,U,43623,999,5426,0,-.39E-6,0 GPS BIII-1,2018-109A,2026-09-12T00:11:47.723136,2.00565073,.00399894,55.7397,88.7611,196.1580,336.6894,0,U,43873,999,5681,0,.7E-7,0 METEOR-M2 2,2019-038A,2026-09-12T06:41:50.201664,14.24385496,.00021717,98.9232,243.8869,104.1716,255.9704,0,U,44387,999,37369,.19033166E-4,-.2E-7,0 GPS BIII-2,2019-056A,2026-09-10T09:48:58.382784,2.00571097,.0065766,55.5893,327.7525,199.8938,163.8410,0,U,44506,999,5178,0,-.85E-6,0 BEIDOU-3 M24,2019-061A,2026-09-10T01:57:00.737856,1.86229234,.00091736,54.3942,179.8664,11.0844,348.9243,0,U,44542,999,4737,0,-.24E-6,0 BEIDOU-3 M23,2019-061B,2026-09-10T11:52:23.318976,1.86227700,.00060428,54.3922,179.8209,0.0624,188.1997,0,U,44543,999,4738,0,-.2E-6,0 BEIDOU-3 M22,2019-078A,2026-09-11T12:47:45.201984,1.86227049,.00048404,53.8546,296.7826,42.9059,317.1987,0,U,44793,999,4625,0,-.5E-6,0 BEIDOU-3 M21,2019-078B,2026-09-11T03:15:42.039936,1.86227553,.00027356,53.8284,296.7562,33.9992,326.0864,0,U,44794,999,4625,0,-.47E-6,0 ELEKTRO-L 3,2019-095A,2026-09-10T09:14:01.737312,1.00270492,.0001222,0.4704,82.4109,76.1930,45.2369,0,U,44903,999,2456,0,-.115E-5,0 GPS BIII-3,2020-041A,2026-09-12T04:54:28.876896,2.00566080,.0067432,56.7252,25.5740,205.4040,308.9873,0,U,45854,999,4578,0,-.95E-6,0 COSMOS 2547,2020-075A,2026-09-11T18:12:09.302400,2.13099687,.00085533,64.6008,189.5880,236.4821,123.4270,0,U,46805,999,4575,0,0,0 GPS BIII-4,2020-078A,2026-09-11T12:24:33.881184,2.00565053,.00760655,53.9683,207.2798,208.4421,149.1755,0,U,46826,999,4323,0,-.12E-6,0 GSAT0223 (GALILEO 27),2021-116A,2026-09-08T09:15:31.398048,1.70476049,.00039553,57.1270,339.4281,220.3982,200.3753,0,U,49809,999,2960,0,-.99E-6,0 GSAT0224 (GALILEO 28),2021-116B,2026-09-12T04:57:18.257184,1.70476350,.0003182,57.1262,339.3236,214.6681,143.5941,0,U,49810,999,2968,0,-.103E-5,0 GOES 18,2022-021A,2026-09-12T04:42:04.717152,1.00273362,.00005013,0.0349,307.2029,281.7630,55.7687,0,U,51850,999,746,0,.81E-6,0 COSMOS 2557 (706K),2022-075A,2026-09-11T22:07:46.771968,2.13102028,.00125206,64.2422,311.4262,269.0241,90.9097,0,U,52984,999,3256,0,-.44E-6,0 METEOSAT-12 (MTG-I1),2022-170C,2026-09-12T07:03:36.148032,1.00271071,.00037512,0.7778,26.1406,86.6528,343.9511,0,U,54743,999,1385,0,-.23E-6,0 METEOR-M2 3,2023-091A,2026-09-12T07:03:00.679968,14.24052364,.00027857,98.6000,308.4526,279.2318,80.8546,0,U,57166,999,16691,.17200513E-4,-.4E-7,0 COSMOS 2569 (703K),2023-114A,2026-09-12T01:35:18.827232,2.13102544,.00085698,65.3568,69.6932,289.2479,70.6925,0,U,57517,999,2411,0,0,0 METEOR-M2 4,2024-039A,2026-09-12T06:23:49.780032,14.22437189,.00059497,98.7110,213.5067,280.9553,79.0955,0,U,59051,999,13164,.17367085E-4,-.5E-7,0 GSAT0225 (GALILEO 29),2024-079A,2026-09-11T22:18:26.505216,1.70474149,.00013459,55.1754,98.6543,119.7816,61.6279,0,U,59598,999,1479,0,.12E-6,0 GSAT0227 (GALILEO 30),2024-079C,2026-09-11T05:32:31.864704,1.70474135,.00041437,55.1701,98.6721,92.2332,267.9075,0,U,59600,999,1483,0,.15E-6,0 GSAT0232 (GALILEO 32),2024-167A,2026-09-12T01:13:47.191296,1.70473627,.00056213,55.1656,218.9315,235.9553,123.2359,0,U,61182,999,1235,0,.1E-7,0 GSAT0226 (GALILEO 31),2024-167B,2026-09-11T07:40:24.494880,1.70473586,.00025111,55.1647,218.9588,247.1445,114.4318,0,U,61183,999,1232,0,-.2E-7,0 GSAT0233 (GALILEO 33),2025-302A,2026-09-11T03:57:18.785664,1.70474110,.00028117,54.3907,99.6797,137.8820,225.2404,0,U,67160,999,459,0,.14E-6,0 GSAT0234 (GALILEO 34),2025-302C,2026-09-11T03:48:38.909088,1.70474090,.00005097,54.3927,99.6790,35.7866,143.7414,0,U,67162,999,464,0,.14E-6,0